Time,TemperatureF,DewpointF,PressureIn,WindDirection,WindDirectionDegrees,WindSpeedMPH,WindSpeedGustMPH,Humidity,HourlyPrecipIn,Conditions,Clouds,dailyrainin,SoftwareType,DateUTC
2018-01-18 00:02:00,12.9,-2.7,29.91,NNE,20,0.0,4.6,49,0.00,OVC,,0.00,WeatherDisplay:10.37,2018-01-18 05:02:00,
2018-01-18 00:07:00,12.7,-2.8,29.91,NNE,20,0.0,0.0,49,0.00,OVC,,0.00,WeatherDisplay:10.37,2018-01-18 05:07:00,
2018-01-18 00:12:00,12.7,-2.8,29.91,NNE,20,0.0,0.0,49,0.00,OVC,,0.00,WeatherDisplay:10.37,2018-01-18 05:12:00,
2018-01-18 00:17:00,12.7,-2.8,29.91,NNE,20,0.0,0.0,49,0.00,OVC,,0.00,WeatherDisplay:10.37,2018-01-18 05:17:00,
2018-01-18 00:22:00,12.6,-3.0,29.91,NNE,20,0.0,0.0,49,0.00,SCT,,0.00,WeatherDisplay:10.37,2018-01-18 05:22:00,
2018-01-18 00:27:00,12.7,-2.8,29.90,NNE,20,0.0,0.0,49,0.00,SCT,,0.00,WeatherDisplay:10.37,2018-01-18 05:27:00,
2018-01-18 00:32:00,12.7,-2.8,29.90,NNE,20,0.0,0.0,49,0.00,SCT,,0.00,WeatherDisplay:10.37,2018-01-18 05:32:00,
2018-01-18 00:37:00,12.6,-3.0,29.90,NNE,20,0.0,0.0,49,0.00,SCT,,0.00,WeatherDisplay:10.37,2018-01-18 05:37:00,
2018-01-18 00:42:00,12.4,-3.2,29.90,NNE,20,0.0,0.0,49,0.00,CLR,,0.00,WeatherDisplay:10.37,2018-01-18 05:42:00,
2018-01-18 00:47:00,12.2,-3.8,29.90,NNE,20,0.0,0.0,48,0.00,CLR,,0.00,WeatherDisplay:10.37,2018-01-18 05:47:00,
2018-01-18 00:52:00,12.0,-3.5,29.89,NNE,20,0.0,0.0,49,0.00,CLR,,0.00,WeatherDisplay:10.37,2018-01-18 05:52:00,
2018-01-18 00:57:00,11.8,-3.3,29.89,NNE,20,0.0,0.0,50,0.00,CLR,,0.00,WeatherDisplay:10.37,2018-01-18 05:57:00,
2018-01-18 01:02:00,11.7,-3.4,29.89,NNE,20,0.0,0.0,50,0.00,CLR,,0.00,WeatherDisplay:10.37,2018-01-18 06:02:00,
2018-01-18 01:07:00,11.7,-3.4,29.89,NNE,20,0.0,0.0,50,0.00,CLR,,0.00,WeatherDisplay:10.37,2018-01-18 06:07:00,
2018-01-18 01:12:00,11.1,-3.5,29.89,NNE,20,0.0,0.0,51,0.00,CLR,,0.00,WeatherDisplay:10.37,2018-01-18 06:12:00,
2018-01-18 01:17:00,11.1,-3.5,29.88,NNE,20,0.0,0.0,51,0.00,CLR,,0.00,WeatherDisplay:10.37,2018-01-18 06:17:00,
2018-01-18 01:22:00,11.1,-3.5,29.88,NNE,20,0.0,0.0,51,0.00,CLR,,0.00,WeatherDisplay:10.37,2018-01-18 06:22:00,
2018-01-18 01:27:00,10.9,-3.3,29.88,NNE,20,0.0,0.0,52,0.00,CLR,,0.00,WeatherDisplay:10.37,2018-01-18 06:27:00,
2018-01-18 01:32:00,10.8,-3.4,29.88,NNE,20,0.0,0.0,52,0.00,CLR,,0.00,WeatherDisplay:10.37,2018-01-18 06:32:00,
2018-01-18 01:37:00,10.8,-3.4,29.88,NNE,20,0.0,0.0,52,0.00,CLR,,0.00,WeatherDisplay:10.37,2018-01-18 06:37:00,
2018-01-18 01:42:00,10.8,-3.4,29.87,NNE,20,0.0,0.0,52,0.00,CLR,,0.00,WeatherDisplay:10.37,2018-01-18 06:42:00,
2018-01-18 01:47:00,10.6,-3.6,29.88,NNE,20,0.0,0.0,52,0.00,CLR,,0.00,WeatherDisplay:10.37,2018-01-18 06:47:00,
2018-01-18 01:52:00,10.6,-3.6,29.88,NNE,20,0.0,0.0,52,0.00,CLR,,0.00,WeatherDisplay:10.37,2018-01-18 06:52:00,
2018-01-18 01:57:00,10.4,-3.8,29.88,NNE,20,0.0,0.0,52,0.00,CLR,,0.00,WeatherDisplay:10.37,2018-01-18 06:57:00,
2018-01-18 02:02:00,10.4,-3.8,29.88,NNE,20,0.0,0.0,52,0.00,CLR,,0.00,WeatherDisplay:10.37,2018-01-18 07:02:00,
2018-01-18 02:07:00,10.6,-3.2,29.88,NNE,20,0.0,0.0,53,0.00,CLR,,0.00,WeatherDisplay:10.37,2018-01-18 07:07:00,
2018-01-18 02:12:00,10.6,-3.2,29.87,NNE,20,0.0,0.0,53,0.00,CLR,,0.00,WeatherDisplay:10.37,2018-01-18 07:12:00,
2018-01-18 02:17:00,10.6,-3.2,29.87,NNE,20,0.0,0.0,53,0.00,CLR,,0.00,WeatherDisplay:10.37,2018-01-18 07:17:00,
2018-01-18 02:22:00,10.8,-3.0,29.87,NNE,20,0.0,0.0,53,0.00,SCT,,0.00,WeatherDisplay:10.37,2018-01-18 07:22:00,
2018-01-18 02:27:00,10.8,-3.4,29.87,NNE,20,0.0,0.0,52,0.00,SCT,,0.00,WeatherDisplay:10.37,2018-01-18 07:27:00,
2018-01-18 02:32:00,10.8,-3.4,29.86,NNE,20,0.0,0.0,52,0.00,SCT,,0.00,WeatherDisplay:10.37,2018-01-18 07:32:00,
2018-01-18 02:37:00,10.8,-3.4,29.86,NNE,20,0.0,0.0,52,0.00,SCT,,0.00,WeatherDisplay:10.37,2018-01-18 07:37:00,
2018-01-18 02:42:00,10.6,-3.6,29.86,NNE,20,0.0,0.0,52,0.00,SCT,,0.00,WeatherDisplay:10.37,2018-01-18 07:42:00,
2018-01-18 02:47:00,10.6,-3.2,29.86,NNE,20,0.0,0.0,53,0.00,SCT,,0.00,WeatherDisplay:10.37,2018-01-18 07:47:00,
2018-01-18 02:52:00,10.4,-3.4,29.86,NNE,20,0.0,0.0,53,0.00,SCT,,0.00,WeatherDisplay:10.37,2018-01-18 07:52:00,
2018-01-18 02:57:00,10.2,-5.2,29.86,NNE,20,0.0,0.0,49,0.00,SCT,,0.00,WeatherDisplay:10.37,2018-01-18 07:57:00,
2018-01-18 03:02:00,10.2,-5.2,29.85,NNE,20,0.0,0.0,49,0.00,CLR,,0.00,WeatherDisplay:10.37,2018-01-18 08:02:00,
2018-01-18 03:07:00,10.2,-5.2,29.85,NNE,20,0.0,0.0,49,0.00,CLR,,0.00,WeatherDisplay:10.37,2018-01-18 08:07:00,
2018-01-18 03:12:00,10.4,-3.4,29.85,NNE,20,0.0,0.0,53,0.00,CLR,,0.00,WeatherDisplay:10.37,2018-01-18 08:12:00,
2018-01-18 03:17:00,10.6,-3.2,29.85,NNE,20,0.0,0.0,53,0.00,CLR,,0.00,WeatherDisplay:10.37,2018-01-18 08:17:00,
2018-01-18 03:22:00,10.4,-3.4,29.85,NNE,20,0.0,0.0,53,0.00,CLR,,0.00,WeatherDisplay:10.37,2018-01-18 08:22:00,
2018-01-18 03:27:00,10.4,-3.0,29.85,NNE,20,0.0,0.0,54,0.00,CLR,,0.00,WeatherDisplay:10.37,2018-01-18 08:27:00,
2018-01-18 03:32:00,10.4,-3.0,29.85,NNE,20,0.0,0.0,54,0.00,CLR,,0.00,WeatherDisplay:10.37,2018-01-18 08:32:00,
2018-01-18 03:42:00,10.2,-4.8,29.84,NNE,20,0.0,0.0,50,0.00,CLR,,0.00,WeatherDisplay:10.37,2018-01-18 08:42:00,
2018-01-18 03:47:00,10.2,-4.8,29.84,NNE,20,0.0,0.0,50,0.00,CLR,,0.00,WeatherDisplay:10.37,2018-01-18 08:47:00,
2018-01-18 03:52:00,10.0,-4.9,29.84,NNE,20,0.0,0.0,50,0.00,CLR,,0.00,WeatherDisplay:10.37,2018-01-18 08:52:00,
2018-01-18 03:57:00,10.0,-4.9,29.84,NNE,20,0.0,0.0,50,0.00,CLR,,0.00,WeatherDisplay:10.37,2018-01-18 08:57:00,
2018-01-18 04:02:00,9.9,-5.1,29.83,NNE,20,0.0,0.0,50,0.00,CLR,,0.00,WeatherDisplay:10.37,2018-01-18 09:02:00,
2018-01-18 04:07:00,9.9,-5.1,29.83,NNE,20,0.0,0.0,50,0.00,CLR,,0.00,WeatherDisplay:10.37,2018-01-18 09:07:00,
2018-01-18 04:12:00,9.9,-5.1,29.83,NNE,20,0.0,0.0,50,0.00,CLR,,0.00,WeatherDisplay:10.37,2018-01-18 09:12:00,
2018-01-18 04:17:00,9.7,-5.3,29.83,NNE,20,0.0,0.0,50,0.00,CLR,,0.00,WeatherDisplay:10.37,2018-01-18 09:17:00,
2018-01-18 04:22:00,9.9,-5.1,29.82,NNE,20,0.0,0.0,50,0.00,CLR,,0.00,WeatherDisplay:10.37,2018-01-18 09:22:00,
2018-01-18 04:27:00,9.9,-5.1,29.82,NNE,20,0.0,0.0,50,0.00,CLR,,0.00,WeatherDisplay:10.37,2018-01-18 09:27:00,
2018-01-18 04:32:00,9.9,-5.1,29.83,NNE,20,0.0,0.0,50,0.00,CLR,,0.00,WeatherDisplay:10.37,2018-01-18 09:32:00,
2018-01-18 04:37:00,10.2,-4.8,29.83,NNE,20,0.0,0.0,50,0.00,CLR,,0.00,WeatherDisplay:10.37,2018-01-18 09:37:00,
2018-01-18 04:42:00,10.4,-2.6,29.82,NNE,20,0.0,0.0,55,0.00,CLR,,0.00,WeatherDisplay:10.37,2018-01-18 09:42:00,
2018-01-18 04:47:00,10.6,-2.4,29.82,NNE,20,0.0,0.0,55,0.00,CLR,,0.00,WeatherDisplay:10.37,2018-01-18 09:47:00,
2018-01-18 04:52:00,10.4,-2.6,29.82,NNE,20,0.0,0.0,55,0.00,CLR,,0.00,WeatherDisplay:10.37,2018-01-18 09:52:00,
2018-01-18 04:57:00,10.0,-4.9,29.82,NNE,20,0.0,0.0,50,0.00,CLR,,0.00,WeatherDisplay:10.37,2018-01-18 09:57:00,
2018-01-18 05:02:00,10.0,-4.5,29.82,NNE,20,0.0,0.0,51,0.00,CLR,,0.00,WeatherDisplay:10.37,2018-01-18 10:02:00,
2018-01-18 05:07:00,10.0,-4.5,29.82,NNE,20,0.0,0.0,51,0.00,CLR,,0.00,WeatherDisplay:10.37,2018-01-18 10:07:00,
2018-01-18 05:12:00,9.9,-4.7,29.82,NNE,20,0.0,0.0,51,0.00,CLR,,0.00,WeatherDisplay:10.37,2018-01-18 10:12:00,
2018-01-18 05:17:00,9.9,-4.3,29.82,NNE,20,0.0,0.0,52,0.00,CLR,,0.00,WeatherDisplay:10.37,2018-01-18 10:17:00,
2018-01-18 05:22:00,10.0,-4.1,29.82,NNE,20,0.0,0.0,52,0.00,CLR,,0.00,WeatherDisplay:10.37,2018-01-18 10:22:00,
2018-01-18 05:27:00,10.0,-3.7,29.82,NNE,20,0.0,0.0,53,0.00,CLR,,0.00,WeatherDisplay:10.37,2018-01-18 10:27:00,
2018-01-18 05:32:00,10.0,-3.7,29.81,NNE,20,0.0,0.0,53,0.00,CLR,,0.00,WeatherDisplay:10.37,2018-01-18 10:32:00,
2018-01-18 05:37:00,10.0,-3.7,29.81,NNE,20,0.0,0.0,53,0.00,CLR,,0.00,WeatherDisplay:10.37,2018-01-18 10:37:00,
2018-01-18 05:42:00,10.0,-3.7,29.81,NNE,20,0.0,0.0,53,0.00,CLR,,0.00,WeatherDisplay:10.37,2018-01-18 10:42:00,
2018-01-18 05:47:00,9.9,-3.9,29.81,NNE,20,0.0,0.0,53,0.00,CLR,,0.00,WeatherDisplay:10.37,2018-01-18 10:47:00,
2018-01-18 05:52:00,9.9,-3.9,29.82,NNE,20,0.0,0.0,53,0.00,CLR,,0.00,WeatherDisplay:10.37,2018-01-18 10:52:00,
2018-01-18 05:57:00,9.7,-3.7,29.81,NNE,20,0.0,0.0,54,0.00,CLR,,0.00,WeatherDisplay:10.37,2018-01-18 10:57:00,
2018-01-18 06:02:00,9.9,-3.5,29.81,South,180,3.5,3.5,54,0.00,CLR,,0.00,WeatherDisplay:10.37,2018-01-18 11:02:00,
2018-01-18 06:07:00,9.9,-3.5,29.81,South,180,3.5,3.5,54,0.00,CLR,,0.00,WeatherDisplay:10.37,2018-01-18 11:07:00,
2018-01-18 06:12:00,9.9,-3.1,29.81,South,180,3.5,3.5,55,0.00,CLR,,0.00,WeatherDisplay:10.37,2018-01-18 11:12:00,
2018-01-18 06:17:00,10.0,-2.9,29.82,South,180,3.5,3.5,55,0.00,CLR,,0.00,WeatherDisplay:10.37,2018-01-18 11:17:00,
2018-01-18 06:22:00,10.4,-1.1,29.82,South,180,0.0,3.5,59,0.00,CLR,,0.00,WeatherDisplay:10.37,2018-01-18 11:22:00,
2018-01-18 06:27:00,10.4,-0.8,29.82,South,180,0.0,0.0,60,0.00,CLR,,0.00,WeatherDisplay:10.37,2018-01-18 11:27:00,
2018-01-18 06:32:00,10.6,-0.6,29.82,South,180,0.0,0.0,60,0.00,CLR,,0.00,WeatherDisplay:10.37,2018-01-18 11:32:00,
2018-01-18 06:37:00,10.6,-0.6,29.82,South,180,0.0,0.0,60,0.00,CLR,,0.00,WeatherDisplay:10.37,2018-01-18 11:37:00,
2018-01-18 06:42:00,10.6,-0.6,29.82,South,180,0.0,0.0,60,0.00,CLR,,0.00,WeatherDisplay:10.37,2018-01-18 11:42:00,
2018-01-18 06:47:00,10.6,-0.6,29.82,South,180,0.0,0.0,60,0.00,CLR,,0.00,WeatherDisplay:10.37,2018-01-18 11:47:00,
2018-01-18 06:52:00,10.6,-0.6,29.82,South,180,0.0,0.0,60,0.00,CLR,,0.00,WeatherDisplay:10.37,2018-01-18 11:52:00,
2018-01-18 06:57:00,10.6,-0.6,29.82,South,180,0.0,0.0,60,0.00,CLR,,0.00,WeatherDisplay:10.37,2018-01-18 11:57:00,
2018-01-18 07:02:00,10.6,-0.6,29.82,South,180,0.0,0.0,60,0.00,CLR,,0.00,WeatherDisplay:10.37,2018-01-18 12:02:00,
2018-01-18 07:07:00,10.6,-0.6,29.83,South,180,0.0,0.0,60,0.00,CLR,,0.00,WeatherDisplay:10.37,2018-01-18 12:07:00,
2018-01-18 07:12:00,10.6,-0.6,29.82,South,180,0.0,0.0,60,0.00,CLR,,0.00,WeatherDisplay:10.37,2018-01-18 12:12:00,
2018-01-18 07:17:00,10.8,-0.4,29.83,South,180,0.0,0.0,60,0.00,CLR,,0.00,WeatherDisplay:10.37,2018-01-18 12:17:00,
2018-01-18 07:22:00,10.8,-0.4,29.83,South,180,0.0,0.0,60,0.00,CLR,,0.00,WeatherDisplay:10.37,2018-01-18 12:22:00,
2018-01-18 07:27:00,10.9,-0.2,29.83,South,180,0.0,0.0,60,0.00,CLR,,0.00,WeatherDisplay:10.37,2018-01-18 12:27:00,
2018-01-18 07:32:00,10.9,-0.2,29.83,South,180,0.0,0.0,60,0.00,CLR,,0.00,WeatherDisplay:10.37,2018-01-18 12:32:00,
2018-01-18 07:37:00,10.8,-0.4,29.83,South,180,0.0,0.0,60,0.00,CLR,,0.00,WeatherDisplay:10.37,2018-01-18 12:37:00,
2018-01-18 07:42:00,10.6,-0.6,29.83,South,180,0.0,0.0,60,0.00,CLR,,0.00,WeatherDisplay:10.37,2018-01-18 12:42:00,
2018-01-18 07:47:00,10.4,-0.8,29.83,South,180,0.0,0.0,60,0.00,CLR,,0.00,WeatherDisplay:10.37,2018-01-18 12:47:00,
2018-01-18 07:52:00,10.6,-0.6,29.83,South,180,0.0,0.0,60,0.00,CLR,,0.00,WeatherDisplay:10.37,2018-01-18 12:52:00,
2018-01-18 07:57:00,10.6,-0.2,29.83,South,180,0.0,0.0,61,0.00,CLR,,0.00,WeatherDisplay:10.37,2018-01-18 12:57:00,
2018-01-18 08:02:00,10.8,-0.1,29.83,South,180,0.0,0.0,61,0.00,CLR,,0.00,WeatherDisplay:10.37,2018-01-18 13:02:00,
2018-01-18 08:07:00,10.9,0.1,29.83,South,180,0.0,0.0,61,0.00,CLR,,0.00,WeatherDisplay:10.37,2018-01-18 13:07:00,
2018-01-18 08:12:00,11.3,0.8,29.83,South,180,0.0,0.0,62,0.00,CLR,,0.00,WeatherDisplay:10.37,2018-01-18 13:12:00,
2018-01-18 08:17:00,11.5,0.6,29.83,South,180,0.0,0.0,61,0.00,CLR,,0.00,WeatherDisplay:10.37,2018-01-18 13:17:00,
2018-01-18 08:22:00,12.0,1.1,29.83,South,180,0.0,0.0,61,0.00,CLR,,0.00,WeatherDisplay:10.37,2018-01-18 13:22:00,
2018-01-18 08:27:00,12.7,1.5,29.83,South,180,0.0,0.0,60,0.00,CLR,,0.00,WeatherDisplay:10.37,2018-01-18 13:27:00,
2018-01-18 08:32:00,13.3,2.0,29.83,South,180,0.0,0.0,60,0.00,CLR,,0.00,WeatherDisplay:10.37,2018-01-18 13:32:00,
2018-01-18 08:37:00,14.0,1.9,29.83,South,180,0.0,0.0,58,0.00,CLR,,0.00,WeatherDisplay:10.37,2018-01-18 13:37:00,
2018-01-18 08:42:00,14.4,1.5,29.83,South,180,0.0,0.0,56,0.00,CLR,,0.00,WeatherDisplay:10.37,2018-01-18 13:42:00,
2018-01-18 08:47:00,14.5,1.3,29.82,South,180,0.0,0.0,55,0.00,CLR,,0.00,WeatherDisplay:10.37,2018-01-18 13:47:00,
2018-01-18 08:52:00,14.9,1.6,29.83,South,180,0.0,0.0,55,0.00,CLR,,0.00,WeatherDisplay:10.37,2018-01-18 13:52:00,
2018-01-18 08:57:00,15.3,1.6,29.83,South,180,0.0,0.0,54,0.00,CLR,,0.00,WeatherDisplay:10.37,2018-01-18 13:57:00,
2018-01-18 09:02:00,15.6,1.5,29.83,South,180,0.0,0.0,53,0.00,CLR,,0.00,WeatherDisplay:10.37,2018-01-18 14:02:00,
2018-01-18 09:07:00,15.6,1.5,29.83,South,180,0.0,0.0,53,0.00,CLR,,0.00,WeatherDisplay:10.37,2018-01-18 14:07:00,
2018-01-18 09:12:00,16.7,0.8,29.83,South,180,0.0,0.0,49,0.00,CLR,,0.00,WeatherDisplay:10.37,2018-01-18 14:12:00,
2018-01-18 09:17:00,17.2,0.9,29.83,South,180,0.0,0.0,48,0.00,CLR,,0.00,WeatherDisplay:10.37,2018-01-18 14:17:00,
2018-01-18 09:22:00,17.4,0.6,29.83,SSW,200,5.8,5.8,47,0.00,-SN,,0.00,WeatherDisplay:10.37,2018-01-18 14:22:00,
2018-01-18 09:27:00,17.8,-0.5,29.83,SSW,200,5.8,5.8,44,0.00,-SN,,0.00,WeatherDisplay:10.37,2018-01-18 14:27:00,
2018-01-18 09:32:00,18.1,-0.2,29.83,SSW,200,5.8,5.8,44,0.00,-SN,,0.00,WeatherDisplay:10.37,2018-01-18 14:32:00,
2018-01-18 09:37:00,18.5,-0.3,29.84,SSW,200,5.8,5.8,43,0.00,-SN,,0.00,WeatherDisplay:10.37,2018-01-18 14:37:00,
2018-01-18 09:42:00,19.2,0.3,29.84,SSW,200,6.9,6.9,43,0.00,CLR,,0.00,WeatherDisplay:10.37,2018-01-18 14:42:00,
2018-01-18 09:47:00,19.6,2.1,29.84,SSW,200,6.9,6.9,46,0.00,CLR,,0.00,WeatherDisplay:10.37,2018-01-18 14:47:00,
2018-01-18 09:52:00,20.1,2.6,29.84,SSW,200,6.9,6.9,46,0.00,CLR,,0.00,WeatherDisplay:10.37,2018-01-18 14:52:00,
2018-01-18 09:57:00,20.8,2.8,29.84,SSW,200,6.9,6.9,45,0.00,CLR,,0.00,WeatherDisplay:10.37,2018-01-18 14:57:00,
2018-01-18 10:02:00,21.6,3.0,29.84,SSW,210,10.4,18.4,44,0.00,CLR,,0.00,WeatherDisplay:10.37,2018-01-18 15:02:00,
2018-01-18 10:07:00,22.5,3.3,29.84,SSW,210,10.4,18.4,43,0.00,CLR,,0.00,WeatherDisplay:10.37,2018-01-18 15:07:00,
2018-01-18 10:12:00,23.0,3.3,29.85,SSW,210,10.4,18.4,42,0.00,CLR,,0.00,WeatherDisplay:10.37,2018-01-18 15:12:00,
2018-01-18 10:17:00,23.7,3.4,29.85,SSW,210,10.4,18.4,41,0.00,CLR,,0.00,WeatherDisplay:10.37,2018-01-18 15:17:00,
2018-01-18 10:22:00,24.3,3.9,29.85,SSW,200,9.2,18.4,41,0.00,CLR,,0.00,WeatherDisplay:10.37,2018-01-18 15:22:00,
2018-01-18 10:27:00,24.8,3.3,29.85,SSW,200,9.2,18.4,39,0.00,CLR,,0.00,WeatherDisplay:10.37,2018-01-18 15:27:00,
2018-01-18 10:32:00,25.5,4.0,29.85,SSW,200,9.2,18.4,39,0.00,CLR,,0.00,WeatherDisplay:10.37,2018-01-18 15:32:00,
2018-01-18 10:37:00,26.1,4.4,29.85,SSW,200,9.2,18.4,39,0.00,CLR,,0.00,WeatherDisplay:10.37,2018-01-18 15:37:00,
2018-01-18 10:42:00,26.6,3.2,29.85,SSW,200,12.7,18.4,36,0.00,CLR,,0.00,WeatherDisplay:10.37,2018-01-18 15:42:00,
2018-01-18 10:47:00,27.1,1.8,29.85,SSW,200,12.7,12.7,33,0.00,CLR,,0.00,WeatherDisplay:10.37,2018-01-18 15:47:00,
2018-01-18 10:52:00,27.5,2.1,29.85,SSW,200,12.7,12.7,33,0.00,CLR,,0.00,WeatherDisplay:10.37,2018-01-18 15:52:00,
2018-01-18 10:57:00,27.9,1.8,29.85,SSW,200,12.7,12.7,32,0.00,CLR,,0.00,WeatherDisplay:10.37,2018-01-18 15:57:00,
2018-01-18 11:02:00,27.9,1.8,29.85,SSW,210,10.4,12.7,32,0.00,CLR,,0.00,WeatherDisplay:10.37,2018-01-18 16:02:00,
2018-01-18 11:07:00,28.0,1.9,29.84,SSW,210,10.4,10.4,32,0.00,CLR,,0.00,WeatherDisplay:10.37,2018-01-18 16:07:00,
2018-01-18 11:12:00,29.1,6.6,29.84,SSW,210,10.4,10.4,38,0.00,CLR,,0.00,WeatherDisplay:10.37,2018-01-18 16:12:00,
2018-01-18 11:17:00,29.5,5.8,29.83,SSW,210,10.4,10.4,36,0.00,CLR,,0.00,WeatherDisplay:10.37,2018-01-18 16:17:00,
2018-01-18 11:21:00,29.5,5.1,29.83,South,190,8.1,10.4,35,0.00,CLR,,0.00,WeatherDisplay:10.37,2018-01-18 16:21:00,
2018-01-18 11:26:00,29.8,4.8,29.83,South,190,8.1,8.1,34,0.00,CLR,,0.00,WeatherDisplay:10.37,2018-01-18 16:26:00,
2018-01-18 11:31:00,30.4,4.0,29.83,South,190,8.1,8.1,32,0.00,CLR,,0.00,WeatherDisplay:10.37,2018-01-18 16:31:00,
2018-01-18 11:36:00,30.7,3.6,29.83,South,190,8.1,8.1,31,0.00,CLR,,0.00,WeatherDisplay:10.37,2018-01-18 16:36:00,
2018-01-18 11:41:00,31.3,4.1,29.82,South,170,6.9,8.1,31,0.00,CLR,,0.00,WeatherDisplay:10.37,2018-01-18 16:41:00,
2018-01-18 11:46:00,31.8,4.6,29.82,South,170,6.9,6.9,31,0.00,CLR,,0.00,WeatherDisplay:10.37,2018-01-18 16:46:00,
2018-01-18 11:51:00,32.2,4.2,29.81,South,170,6.9,6.9,30,0.00,CLR,,0.00,WeatherDisplay:10.37,2018-01-18 16:51:00,
2018-01-18 11:56:00,32.4,3.6,29.81,South,170,6.9,6.9,29,0.00,CLR,,0.00,WeatherDisplay:10.37,2018-01-18 16:56:00,
2018-01-18 12:01:00,32.9,4.1,29.81,South,190,9.2,9.2,29,0.00,CLR,,0.00,WeatherDisplay:10.37,2018-01-18 17:01:00,
2018-01-18 12:06:00,33.3,4.4,29.80,South,190,9.2,9.2,29,0.00,CLR,,0.00,WeatherDisplay:10.37,2018-01-18 17:06:00,
2018-01-18 12:11:00,33.8,2.5,29.79,South,190,9.2,9.2,26,0.00,CLR,,0.00,WeatherDisplay:10.37,2018-01-18 17:11:00,
2018-01-18 12:16:00,34.0,1.8,29.79,South,190,9.2,9.2,25,0.00,CLR,,0.00,WeatherDisplay:10.37,2018-01-18 17:16:00,
2018-01-18 12:21:00,34.3,2.9,29.78,SSW,200,9.2,18.4,26,0.00,CLR,,0.00,WeatherDisplay:10.37,2018-01-18 17:21:00,
2018-01-18 12:26:00,34.7,3.2,29.79,SSW,200,9.2,18.4,26,0.00,CLR,,0.00,WeatherDisplay:10.37,2018-01-18 17:26:00,
2018-01-18 12:31:00,34.9,2.6,29.78,SSW,200,9.2,18.4,25,0.00,CLR,,0.00,WeatherDisplay:10.37,2018-01-18 17:31:00,
2018-01-18 12:36:00,34.9,1.7,29.78,SSW,200,9.2,18.4,24,0.00,CLR,,0.00,WeatherDisplay:10.37,2018-01-18 17:36:00,
2018-01-18 12:41:00,35.1,0.9,29.78,South,180,8.1,18.4,23,0.00,CLR,,0.00,WeatherDisplay:10.37,2018-01-18 17:41:00,
2018-01-18 12:46:00,35.4,2.1,29.78,South,180,8.1,8.1,24,0.00,CLR,,0.00,WeatherDisplay:10.37,2018-01-18 17:46:00,
2018-01-18 12:51:00,35.2,2.0,29.77,South,180,8.1,8.1,24,0.00,CLR,,0.00,WeatherDisplay:10.37,2018-01-18 17:51:00,
2018-01-18 12:56:00,35.4,3.0,29.77,South,180,8.1,8.1,25,0.00,CLR,,0.00,WeatherDisplay:10.37,2018-01-18 17:56:00,
2018-01-18 13:01:00,35.8,2.4,29.77,SSW,200,13.8,13.8,24,0.00,CLR,,0.00,WeatherDisplay:10.37,2018-01-18 18:01:00,
2018-01-18 13:06:00,35.8,2.4,29.76,SSW,200,13.8,13.8,24,0.00,CLR,,0.00,WeatherDisplay:10.37,2018-01-18 18:06:00,
2018-01-18 13:11:00,36.0,2.6,29.76,SSW,200,13.8,13.8,24,0.00,CLR,,0.00,WeatherDisplay:10.37,2018-01-18 18:11:00,
2018-01-18 13:16:00,36.0,2.6,29.75,SSW,200,13.8,13.8,24,0.00,CLR,,0.00,WeatherDisplay:10.37,2018-01-18 18:16:00,
2018-01-18 13:21:00,36.3,2.9,29.75,SSW,210,8.1,13.8,24,0.00,CLR,,0.00,WeatherDisplay:10.37,2018-01-18 18:21:00,
2018-01-18 13:26:00,36.7,2.3,29.75,SSW,210,8.1,8.1,23,0.00,CLR,,0.00,WeatherDisplay:10.37,2018-01-18 18:26:00,
2018-01-18 13:31:00,37.4,5.6,29.75,SSW,210,8.1,8.1,26,0.01,RA,,0.01,WeatherDisplay:10.37,2018-01-18 18:31:00,
2018-01-18 13:36:00,38.1,6.2,29.74,SSW,210,8.1,8.1,26,0.01,RA,,0.01,WeatherDisplay:10.37,2018-01-18 18:36:00,
2018-01-18 13:41:00,38.5,5.6,29.74,SW,220,9.2,9.2,25,0.01,CLR,,0.01,WeatherDisplay:10.37,2018-01-18 18:41:00,
2018-01-18 13:46:00,38.1,5.3,29.74,SW,220,9.2,9.2,25,0.01,CLR,,0.01,WeatherDisplay:10.37,2018-01-18 18:46:00,
2018-01-18 13:51:00,38.7,6.7,29.74,SW,220,9.2,9.2,26,0.01,CLR,,0.01,WeatherDisplay:10.37,2018-01-18 18:51:00,
2018-01-18 13:56:00,39.2,6.3,29.73,SW,220,9.2,9.2,25,0.01,CLR,,0.01,WeatherDisplay:10.37,2018-01-18 18:56:00,
2018-01-18 14:01:00,39.2,5.4,29.73,SSW,210,9.2,9.2,24,0.01,CLR,,0.01,WeatherDisplay:10.37,2018-01-18 19:01:00,
2018-01-18 14:06:00,39.6,5.7,29.73,SSW,210,9.2,9.2,24,0.01,CLR,,0.01,WeatherDisplay:10.37,2018-01-18 19:06:00,
2018-01-18 14:11:00,39.9,6.0,29.73,SSW,210,9.2,9.2,24,0.01,CLR,,0.01,WeatherDisplay:10.37,2018-01-18 19:11:00,
2018-01-18 14:16:00,40.3,6.3,29.73,SSW,210,9.2,9.2,24,0.01,CLR,,0.01,WeatherDisplay:10.37,2018-01-18 19:16:00,
2018-01-18 14:21:00,40.5,6.4,29.73,SSW,210,10.4,10.4,24,0.01,CLR,,0.01,WeatherDisplay:10.37,2018-01-18 19:21:00,
2018-01-18 14:26:00,40.6,6.6,29.73,SSW,210,10.4,10.4,24,0.01,CLR,,0.01,WeatherDisplay:10.37,2018-01-18 19:26:00,
2018-01-18 14:31:00,41.4,6.3,29.72,SSW,210,10.4,10.4,23,0.00,CLR,,0.01,WeatherDisplay:10.37,2018-01-18 19:31:00,
2018-01-18 14:36:00,41.5,6.4,29.73,SSW,210,10.4,10.4,23,0.00,CLR,,0.01,WeatherDisplay:10.37,2018-01-18 19:36:00,
2018-01-18 14:41:00,41.7,6.6,29.72,SW,220,10.4,10.4,23,0.00,CLR,,0.01,WeatherDisplay:10.37,2018-01-18 19:41:00,
2018-01-18 14:46:00,41.9,6.7,29.72,SW,220,10.4,10.4,23,0.00,CLR,,0.01,WeatherDisplay:10.37,2018-01-18 19:46:00,
2018-01-18 14:51:00,42.4,7.2,29.72,SW,220,10.4,10.4,23,0.00,CLR,,0.01,WeatherDisplay:10.37,2018-01-18 19:51:00,
2018-01-18 14:56:00,42.3,6.1,29.72,SW,220,10.4,10.4,22,0.00,CLR,,0.01,WeatherDisplay:10.37,2018-01-18 19:56:00,
2018-01-18 15:01:00,42.3,7.0,29.72,SSW,210,8.1,10.4,23,0.00,CLR,,0.01,WeatherDisplay:10.37,2018-01-18 20:01:00,
2018-01-18 15:06:00,42.4,7.2,29.72,SSW,210,8.1,8.1,23,0.00,CLR,,0.01,WeatherDisplay:10.37,2018-01-18 20:06:00,
2018-01-18 15:11:00,43.2,5.8,29.71,SSW,210,8.1,8.1,21,0.00,CLR,,0.01,WeatherDisplay:10.37,2018-01-18 20:11:00,
2018-01-18 15:16:00,43.3,5.9,29.71,SSW,210,8.1,8.1,21,0.00,CLR,,0.01,WeatherDisplay:10.37,2018-01-18 20:16:00,
2018-01-18 15:21:00,42.8,5.5,29.71,South,180,8.1,8.1,21,0.00,CLR,,0.01,WeatherDisplay:10.37,2018-01-18 20:21:00,
2018-01-18 15:26:00,42.6,6.4,29.71,South,180,8.1,8.1,22,0.00,CLR,,0.01,WeatherDisplay:10.37,2018-01-18 20:26:00,
2018-01-18 15:31:00,42.1,5.9,29.71,South,180,8.1,8.1,22,0.00,CLR,,0.01,WeatherDisplay:10.37,2018-01-18 20:31:00,
2018-01-18 15:36:00,41.9,6.7,29.71,South,180,8.1,8.1,23,0.00,CLR,,0.01,WeatherDisplay:10.37,2018-01-18 20:36:00,
2018-01-18 15:41:00,42.1,5.9,29.71,SSW,200,6.9,8.1,22,0.00,CLR,,0.01,WeatherDisplay:10.37,2018-01-18 20:41:00,
2018-01-18 15:46:00,43.2,5.8,29.71,SSW,200,6.9,6.9,21,0.00,CLR,,0.01,WeatherDisplay:10.37,2018-01-18 20:46:00,
2018-01-18 15:51:00,43.7,5.2,29.71,SSW,200,6.9,6.9,20,0.00,CLR,,0.01,WeatherDisplay:10.37,2018-01-18 20:51:00,
2018-01-18 15:56:00,44.2,5.6,29.70,SSW,200,6.9,6.9,20,0.00,CLR,,0.01,WeatherDisplay:10.37,2018-01-18 20:56:00,
2018-01-18 16:01:00,44.4,5.8,29.71,South,170,5.8,6.9,20,0.00,CLR,,0.01,WeatherDisplay:10.37,2018-01-18 21:01:00,
2018-01-18 16:06:00,45.0,3.9,29.70,South,170,5.8,5.8,18,0.00,CLR,,0.01,WeatherDisplay:10.37,2018-01-18 21:06:00,
2018-01-18 16:11:00,45.7,4.5,29.70,South,170,5.8,5.8,18,0.00,CLR,,0.01,WeatherDisplay:10.37,2018-01-18 21:11:00,
2018-01-18 16:16:00,46.2,5.0,29.70,South,170,5.8,5.8,18,0.00,CLR,,0.01,WeatherDisplay:10.37,2018-01-18 21:16:00,
2018-01-18 16:21:00,46.0,4.8,29.71,South,170,5.8,5.8,18,0.00,CLR,,0.01,WeatherDisplay:10.37,2018-01-18 21:21:00,
2018-01-18 16:26:00,45.7,4.5,29.70,South,170,5.8,5.8,18,0.00,CLR,,0.01,WeatherDisplay:10.37,2018-01-18 21:26:00,
2018-01-18 16:31:00,45.3,4.2,29.71,South,170,5.8,5.8,18,0.00,CLR,,0.01,WeatherDisplay:10.37,2018-01-18 21:31:00,
2018-01-18 16:36:00,45.0,3.9,29.71,South,170,5.8,5.8,18,0.00,CLR,,0.01,WeatherDisplay:10.37,2018-01-18 21:36:00,
2018-01-18 16:41:00,44.8,3.8,29.71,SSE,160,6.9,6.9,18,0.00,CLR,,0.01,WeatherDisplay:10.37,2018-01-18 21:41:00,
2018-01-18 16:46:00,44.8,3.8,29.71,SSE,160,6.9,6.9,18,0.00,CLR,,0.01,WeatherDisplay:10.37,2018-01-18 21:46:00,
2018-01-18 16:51:00,44.6,3.6,29.72,SSE,160,6.9,6.9,18,0.00,CLR,,0.01,WeatherDisplay:10.37,2018-01-18 21:51:00,
2018-01-18 16:56:00,44.4,4.7,29.71,SSE,160,6.9,6.9,19,0.00,CLR,,0.01,WeatherDisplay:10.37,2018-01-18 21:56:00,
2018-01-18 17:01:00,44.2,4.5,29.71,SSE,150,6.9,6.9,19,0.00,CLR,,0.01,WeatherDisplay:10.37,2018-01-18 22:01:00,
2018-01-18 17:06:00,44.2,4.5,29.71,SSE,150,6.9,6.9,19,0.00,CLR,,0.01,WeatherDisplay:10.37,2018-01-18 22:06:00,
2018-01-18 17:11:00,42.1,3.8,29.71,SSE,150,6.9,6.9,20,0.00,CLR,,0.01,WeatherDisplay:10.37,2018-01-18 22:11:00,
2018-01-18 17:16:00,41.2,4.1,29.71,SSE,150,6.9,6.9,21,0.00,CLR,,0.01,WeatherDisplay:10.37,2018-01-18 22:16:00,
2018-01-18 17:21:00,40.1,5.2,29.71,SSE,160,6.9,6.9,23,0.00,CLR,,0.01,WeatherDisplay:10.37,2018-01-18 22:21:00,
2018-01-18 17:26:00,39.0,6.1,29.72,SSE,160,6.9,6.9,25,0.00,CLR,,0.01,WeatherDisplay:10.37,2018-01-18 22:26:00,
2018-01-18 17:31:00,38.3,5.5,29.72,SSE,160,6.9,6.9,25,0.00,CLR,,0.01,WeatherDisplay:10.37,2018-01-18 22:31:00,
2018-01-18 17:36:00,37.4,5.6,29.72,SSE,160,6.9,6.9,26,0.00,CLR,,0.01,WeatherDisplay:10.37,2018-01-18 22:36:00,